| time (UTC) | temp F | wind direction | speed MPH | gust MPH | rain 1hr in | rain 24hr in | rain mn in | humidity % | barometer mb |
| 20260903052100 | 53 | 105 | 2.0 | 2.0 | 0.00 | 0.10 | 0.10 | 70 | 1010.9 |
| 20260903051555 | 52 | 82 | 1.0 | 1.0 | 0.00 | 0.10 | 0.10 | 71 | 1011.0 |
| 20260903051051 | 52 | 82 | 1.0 | 2.0 | 0.00 | 0.10 | 0.10 | 72 | 1011.2 |
| 20260903050550 | 53 | 75 | 1.0 | 2.0 | 0.00 | 0.10 | 0.10 | 70 | 1011.0 |
| 20260903050045 | 54 | 104 | 1.0 | 2.0 | 0.00 | 0.10 | 0.10 | 68 | 1011.1 |
| 20260903045544 | 55 | 107 | 4.0 | 5.0 | 0.00 | 0.10 | 0.10 | 70 | 1011.1 |
| 20260903045042 | 55 | 250 | 3.0 | 3.0 | 0.00 | 0.10 | 0.10 | 66 | 1010.9 |
| 20260903044537 | 56 | 99 | 0.0 | 0.0 | 0.00 | 0.10 | 0.10 | 65 | 1011.0 |
| 20260903044032 | 57 | 105 | 2.0 | 2.0 | 0.00 | 0.10 | 0.10 | 61 | 1011.0 |
| 20260903043528 | 53 | 155 | 4.0 | 5.0 | 0.00 | 0.10 | 0.10 | 70 | 1011.1 |
| 20260903043027 | 53 | 77 | 0.0 | 0.0 | 0.00 | 0.10 | 0.10 | 73 | 1011.0 |
| 20260903042522 | 52 | 254 | 2.0 | 2.0 | 0.00 | 0.10 | 0.10 | 76 | 1011.1 |
| 20260903042018 | 51 | 61 | 0.0 | 0.0 | 0.00 | 0.10 | 0.10 | 77 | 1011.2 |
| 20260903041514 | 52 | 73 | 3.0 | 3.0 | 0.00 | 0.10 | 0.10 | 76 | 1011.1 |
| 20260903041009 | 53 | 204 | 1.0 | 1.0 | 0.00 | 0.10 | 0.10 | 73 | 1011.1 |
| 20260903040508 | 53 | 261 | 2.0 | 2.0 | 0.00 | 0.10 | 0.10 | 73 | 1011.2 |
| 20260903040008 | 54 | 256 | 1.0 | 2.0 | 0.00 | 0.10 | 0.10 | 71 | 1011.0 |
| 20260903035500 | 55 | 174 | 3.0 | 3.0 | 0.00 | 0.10 | 0.10 | 68 | 1011.3 |
| 20260903034955 | 55 | 105 | 0.0 | 0.0 | 0.00 | 0.10 | 0.10 | 67 | 1011.3 |
| 20260903034450 | 55 | 106 | 1.0 | 2.0 | 0.00 | 0.10 | 0.10 | 69 | 1011.5 |
| 20260903033950 | 55 | 100 | 1.0 | 2.0 | 0.00 | 0.10 | 0.10 | 71 | 1011.2 |
| 20260903033445 | 57 | 86 | 3.0 | 3.0 | 0.00 | 0.10 | 0.10 | 64 | 1011.2 |
| 20260903032940 | 57 | 84 | 0.0 | 0.0 | 0.00 | 0.10 | 0.10 | 63 | 1011.1 |
| 20260903032436 | 58 | 84 | 0.0 | 1.0 | 0.00 | 0.10 | 0.10 | 64 | 1011.2 |
| 20260903031930 | 59 | 87 | 2.0 | 2.0 | 0.00 | 0.10 | 0.10 | 61 | 1010.9 |
| 20260903031425 | 59 | 0 | 0.0 | 0.0 | 0.00 | 0.10 | 0.10 | 60 | 1011.0 |
| 20260903030920 | 59 | 0 | 1.0 | 2.0 | 0.00 | 0.10 | 0.10 | 58 | 1011.1 |
| 20260903030416 | 60 | 0 | 2.0 | 2.0 | 0.00 | 0.10 | 0.10 | 57 | 1011.2 |
| 20260903025912 | 60 | 21 | 1.0 | 2.0 | 0.00 | 0.10 | 0.10 | 56 | 1011.2 |
| 20260903025408 | 61 | 314 | 3.0 | 5.0 | 0.00 | 0.10 | 0.10 | 55 | 1011.2 |
| 20260903024902 | 61 | 7 | 3.0 | 3.0 | 0.00 | 0.10 | 0.10 | 55 | 1010.8 |
| 20260903024356 | 61 | 314 | 4.0 | 5.0 | 0.00 | 0.10 | 0.10 | 54 | 1011.0 |
| 20260903023851 | 61 | 321 | 5.0 | 6.0 | 0.00 | 0.10 | 0.10 | 53 | 1011.0 |
| 20260903023347 | 61 | 337 | 3.0 | 3.0 | 0.00 | 0.10 | 0.10 | 54 | 1011.0 |
| 20260903022842 | 61 | 9 | 1.0 | 2.0 | 0.00 | 0.10 | 0.10 | 55 | 1011.0 |
| 20260903022341 | 60 | 25 | 2.0 | 2.0 | 0.00 | 0.10 | 0.10 | 55 | 1011.1 |
| 20260903021840 | 60 | 25 | 1.0 | 1.0 | 0.00 | 0.10 | 0.10 | 56 | 1011.0 |
| 20260903021336 | 60 | 25 | 1.0 | 2.0 | 0.00 | 0.10 | 0.10 | 56 | 1011.0 |
| 20260903020835 | 61 | 24 | 1.0 | 1.0 | 0.00 | 0.10 | 0.10 | 55 | 1011.0 |
| 20260903020331 | 61 | 25 | 1.0 | 1.0 | 0.00 | 0.10 | 0.10 | 55 | 1011.2 |
| 20260903015825 | 62 | 36 | 0.0 | 0.0 | 0.00 | 0.10 | 0.10 | 54 | 1011.2 |
| 20260903015321 | 62 | 293 | 1.0 | 2.0 | 0.00 | 0.10 | 0.10 | 53 | 1011.1 |
| 20260903014816 | 62 | 299 | 4.0 | 5.0 | 0.00 | 0.10 | 0.10 | 54 | 1011.2 |
| 20260903014316 | 62 | 24 | 0.0 | 0.0 | 0.00 | 0.10 | 0.10 | 56 | 1010.8 |
| 20260903013811 | 63 | 24 | 0.0 | 0.0 | 0.00 | 0.10 | 0.10 | 55 | 1011.1 |
| 20260903013310 | 64 | 10 | 1.0 | 1.0 | 0.00 | 0.10 | 0.10 | 53 | 1011.3 |
| 20260903012809 | 65 | 24 | 1.0 | 1.0 | 0.00 | 0.10 | 0.10 | 51 | 1011.2 |
| 20260903012306 | 65 | 31 | 1.0 | 1.0 | 0.00 | 0.10 | 0.10 | 54 | 1011.0 |
| 20260903011757 | 66 | 312 | 4.0 | 5.0 | 0.00 | 0.10 | 0.10 | 51 | 1011.2 |
| 20260903011256 | 66 | 323 | 4.0 | 5.0 | 0.00 | 0.10 | 0.10 | 50 | 1010.9 |
| 20260903010752 | 66 | 340 | 5.0 | 6.0 | 0.00 | 0.10 | 0.10 | 49 | 1010.9 |
| 20260903010248 | 66 | 310 | 8.0 | 9.0 | 0.00 | 0.10 | 0.10 | 48 | 1011.0 |
| 20260903005746 | 66 | 309 | 7.0 | 8.0 | 0.00 | 0.10 | 0.10 | 49 | 1010.8 |
| 20260903005241 | 66 | 315 | 5.0 | 6.0 | 0.00 | 0.10 | 0.10 | 50 | 1010.9 |
| 20260903004737 | 66 | 345 | 6.0 | 7.0 | 0.00 | 0.10 | 0.10 | 49 | 1010.6 |
| 20260903004232 | 66 | 288 | 5.0 | 6.0 | 0.00 | 0.10 | 0.10 | 50 | 1010.9 |
| 20260903003728 | 65 | 296 | 3.0 | 3.0 | 0.00 | 0.10 | 0.10 | 49 | 1011.0 |
| 20260903003223 | 67 | 353 | 5.0 | 6.0 | 0.00 | 0.10 | 0.10 | 46 | 1011.0 |
| 20260903002717 | 66 | 283 | 6.0 | 7.0 | 0.00 | 0.10 | 0.10 | 47 | 1011.0 |
| 20260903002212 | 66 | 250 | 9.0 | 10.0 | 0.00 | 0.10 | 0.10 | 46 | 1010.9 |
| 20260903001707 | 67 | 251 | 9.0 | 10.0 | 0.00 | 0.10 | 0.10 | 47 | 1011.2 |
| 20260903001207 | 66 | 274 | 7.0 | 8.0 | 0.00 | 0.10 | 0.10 | 46 | 1011.2 |
| 20260903000702 | 66 | 290 | 5.0 | 6.0 | 0.00 | 0.10 | 0.10 | 50 | 1011.5 |
| 20260903000156 | 65 | 274 | 7.0 | 8.0 | 0.00 | 0.10 | 0.10 | 49 | 1011.6 |
| 20260902235655 | 64 | 268 | 5.0 | 6.0 | 0.00 | 0.10 | 0.10 | 53 | 1011.7 |
| 20260902235150 | 65 | 277 | 5.0 | 6.0 | 0.00 | 0.10 | 0.10 | 52 | 1011.7 |
| 20260902234650 | 66 | 302 | 7.0 | 9.0 | 0.00 | 0.10 | 0.10 | 51 | 1011.7 |
| 20260902234148 | 65 | 310 | 7.0 | 7.0 | 0.00 | 0.10 | 0.10 | 49 | 1011.8 |
| 20260902233643 | 65 | 320 | 5.0 | 7.0 | 0.00 | 0.10 | 0.10 | 51 | 1011.7 |
| 20260902233143 | 65 | 287 | 8.0 | 9.0 | 0.00 | 0.10 | 0.10 | 52 | 1011.6 |
| 20260902232642 | 65 | 264 | 12.0 | 14.0 | 0.00 | 0.10 | 0.10 | 50 | 1011.5 |
| 20260902232142 | 64 | 282 | 11.0 | 11.0 | 0.00 | 0.10 | 0.10 | 51 | 1011.7 |
| 20260902231641 | 65 | 270 | 9.0 | 10.0 | 0.00 | 0.10 | 0.10 | 52 | 1011.2 |
| 20260902231136 | 65 | 282 | 8.0 | 11.0 | 0.00 | 0.10 | 0.10 | 52 | 1011.5 |
| 20260902230632 | 64 | 261 | 9.0 | 10.0 | 0.00 | 0.10 | 0.10 | 52 | 1011.7 |
| 20260902230130 | 64 | 247 | 7.0 | 10.0 | 0.00 | 0.10 | 0.10 | 55 | 1011.9 |
| 20260902225626 | 64 | 249 | 10.0 | 10.0 | 0.00 | 0.10 | 0.10 | 55 | 1011.7 |
| 20260902225125 | 64 | 263 | 11.0 | 11.0 | 0.00 | 0.10 | 0.10 | 57 | 1011.5 |
| 20260902224624 | 64 | 280 | 18.0 | 20.0 | 0.00 | 0.10 | 0.10 | 55 | 1011.5 |
| 20260902224120 | 64 | 286 | 14.0 | 15.0 | 0.00 | 0.10 | 0.10 | 58 | 1011.2 |
| 20260902223616 | 63 | 264 | 15.0 | 17.0 | 0.00 | 0.10 | 0.10 | 59 | 1011.3 |
| 20260902223115 | 62 | 317 | 16.0 | 18.0 | 0.00 | 0.10 | 0.10 | 58 | 1011.7 |
| 20260902222614 | 61 | 285 | 14.0 | 20.0 | 0.00 | 0.10 | 0.10 | 60 | 1011.9 |
| 20260902222113 | 60 | 320 | 3.0 | 3.0 | 0.00 | 0.10 | 0.10 | 65 | 1012.0 |
| 20260902221608 | 60 | 14 | 5.0 | 6.0 | 0.00 | 0.10 | 0.10 | 62 | 1011.9 |
| 20260902221102 | 60 | 304 | 7.0 | 8.0 | 0.00 | 0.10 | 0.10 | 63 | 1011.6 |
| 20260902220558 | 60 | 322 | 5.0 | 6.0 | 0.00 | 0.10 | 0.10 | 60 | 1011.8 |
| 20260902220052 | 60 | 323 | 2.0 | 3.0 | 0.00 | 0.10 | 0.10 | 64 | 1011.9 |
| 20260902215548 | 59 | 26 | 3.0 | 3.0 | 0.00 | 0.10 | 0.10 | 67 | 1011.9 |
| 20260902215043 | 59 | 357 | 3.0 | 3.0 | 0.00 | 0.10 | 0.10 | 67 | 1011.7 |
| 20260902214538 | 58 | 245 | 5.0 | 6.0 | 0.00 | 0.10 | 0.10 | 67 | 1011.6 |
| 20260902214037 | 58 | 243 | 12.0 | 18.0 | 0.00 | 0.10 | 0.10 | 67 | 1010.6 |
| 20260902213533 | 58 | 268 | 17.0 | 21.0 | 0.00 | 0.10 | 0.10 | 67 | 1009.8 |
| 20260902213032 | 57 | 257 | 18.0 | 21.0 | 0.00 | 0.10 | 0.10 | 69 | 1010.5 |
| 20260902212528 | 56 | 250 | 20.0 | 22.0 | 0.00 | 0.10 | 0.10 | 71 | 1010.3 |
| 20260902212024 | 56 | 246 | 17.0 | 21.0 | 0.12 | 0.10 | 0.10 | 71 | 1010.6 |
| 20260902211520 | 55 | 250 | 20.0 | 24.0 | 0.12 | 0.10 | 0.10 | 74 | 1010.9 |
| 20260902211015 | 59 | 246 | 26.0 | 33.0 | 0.00 | 0.08 | 0.08 | 64 | 1010.7 |
| 20260902210514 | 62 | 250 | 20.0 | 23.0 | 0.00 | 0.08 | 0.08 | 53 | 1010.5 |
| 20260902210014 | 63 | 271 | 24.0 | 30.0 | 0.00 | 0.08 | 0.08 | 52 | 1009.8 |
| 20260902205508 | 64 | 286 | 32.0 | 35.0 | 0.00 | 0.08 | 0.08 | 49 | 1009.7 |
| 20260902205004 | 65 | 275 | 32.0 | 37.0 | 0.00 | 0.08 | 0.08 | 49 | 1009.0 |
| 20260902204503 | 68 | 269 | 30.0 | 37.0 | 0.00 | 0.08 | 0.08 | 47 | 1008.8 |
| 20260902203959 | 77 | 210 | 3.0 | 3.0 | 0.00 | 0.08 | 0.08 | 47 | 1007.3 |
| 20260902203454 | 77 | 92 | 5.0 | 6.0 | 0.00 | 0.08 | 0.08 | 47 | 1007.0 |
| 20260902202953 | 78 | 55 | 5.0 | 7.0 | 0.00 | 0.08 | 0.08 | 49 | 1006.7 |
| 20260902202449 | 77 | 104 | 5.0 | 6.0 | 0.00 | 0.08 | 0.08 | 49 | 1006.8 |
| 20260902201946 | 77 | 115 | 6.0 | 7.0 | 0.00 | 0.08 | 0.08 | 48 | 1007.0 |
| 20260902201441 | 76 | 109 | 8.0 | 10.0 | 0.00 | 0.08 | 0.08 | 50 | 1006.9 |
| 20260902200940 | 77 | 109 | 5.0 | 7.0 | 0.00 | 0.08 | 0.08 | 51 | 1007.0 |
| 20260902200435 | 77 | 77 | 1.0 | 2.0 | 0.00 | 0.08 | 0.08 | 50 | 1007.0 |
| 20260902195931 | 74 | 119 | 5.0 | 6.0 | 0.00 | 0.08 | 0.08 | 53 | 1007.0 |
| 20260902195426 | 74 | 94 | 6.0 | 6.0 | 0.00 | 0.08 | 0.08 | 52 | 1007.2 |
| 20260902194925 | 73 | 89 | 5.0 | 5.0 | 0.00 | 0.08 | 0.08 | 53 | 1007.4 |
| 20260902194420 | 73 | 79 | 5.0 | 6.0 | 0.00 | 0.08 | 0.08 | 56 | 1007.3 |
| 20260902193915 | 73 | 106 | 6.0 | 7.0 | 0.00 | 0.08 | 0.08 | 56 | 1007.7 |
| 20260902193411 | 73 | 104 | 7.0 | 8.0 | 0.00 | 0.08 | 0.08 | 56 | 1007.5 |
| 20260902192909 | 73 | 115 | 7.0 | 7.0 | 0.00 | 0.08 | 0.08 | 55 | 1007.9 |
| 20260902192409 | 73 | 84 | 6.0 | 7.0 | 0.00 | 0.08 | 0.08 | 57 | 1008.0 |
| 20260902191902 | 73 | 102 | 6.0 | 7.0 | 0.00 | 0.08 | 0.08 | 55 | 1007.9 |
| 20260902191358 | 73 | 70 | 3.0 | 3.0 | 0.00 | 0.08 | 0.08 | 53 | 1007.9 |
| 20260902190858 | 74 | 113 | 6.0 | 7.0 | 0.00 | 0.08 | 0.08 | 51 | 1008.0 |
| 20260902190353 | 73 | 98 | 7.0 | 8.0 | 0.00 | 0.08 | 0.08 | 53 | 1008.1 |
| 20260902185849 | 74 | 111 | 5.0 | 8.0 | 0.00 | 0.08 | 0.08 | 51 | 1008.1 |
| 20260902185345 | 73 | 90 | 5.0 | 6.0 | 0.00 | 0.08 | 0.08 | 53 | 1008.3 |
| 20260902184840 | 72 | 89 | 4.0 | 5.0 | 0.00 | 0.08 | 0.08 | 55 | 1008.4 |
| 20260902184335 | 71 | 94 | 5.0 | 5.0 | 0.00 | 0.08 | 0.08 | 53 | 1008.4 |
| 20260902183831 | 71 | 132 | 5.0 | 7.0 | 0.00 | 0.08 | 0.08 | 57 | 1008.8 |
| 20260902183327 | 71 | 116 | 7.0 | 8.0 | 0.00 | 0.08 | 0.08 | 55 | 1008.6 |
| 20260902182823 | 71 | 74 | 2.0 | 5.0 | 0.00 | 0.08 | 0.08 | 60 | 1008.9 |
| 20260902182319 | 71 | 115 | 5.0 | 6.0 | 0.00 | 0.08 | 0.08 | 57 | 1008.8 |
| 20260902181815 | 70 | 93 | 4.0 | 5.0 | 0.00 | 0.08 | 0.08 | 59 | 1009.0 |
| 20260902181310 | 70 | 99 | 6.0 | 7.0 | 0.00 | 0.08 | 0.08 | 60 | 1008.9 |
| 20260902180804 | 70 | 76 | 1.0 | 2.0 | 0.00 | 0.08 | 0.08 | 62 | 1009.2 |
| 20260902180300 | 69 | 110 | 6.0 | 7.0 | 0.00 | 0.08 | 0.08 | 60 | 1009.3 |
| 20260902175755 | 70 | 111 | 7.0 | 7.0 | 0.00 | 0.08 | 0.08 | 58 | 1009.4 |
| 20260902175251 | 70 | 105 | 5.0 | 6.0 | 0.00 | 0.08 | 0.08 | 59 | 1009.3 |
| 20260902174746 | 71 | 90 | 4.0 | 6.0 | 0.00 | 0.08 | 0.08 | 60 | 1009.2 |
| 20260902174242 | 69 | 72 | 2.0 | 2.0 | 0.00 | 0.08 | 0.08 | 62 | 1009.4 |
| 20260902173737 | 68 | 113 | 4.0 | 5.0 | 0.00 | 0.08 | 0.08 | 63 | 1009.6 |
| 20260902173237 | 67 | 83 | 2.0 | 5.0 | 0.00 | 0.08 | 0.08 | 64 | 1009.7 |
| 20260902172731 | 68 | 72 | 0.0 | 1.0 | 0.00 | 0.08 | 0.08 | 62 | 1009.7 |
| 20260902172226 | 69 | 85 | 1.0 | 1.0 | 0.00 | 0.08 | 0.08 | 59 | 1009.6 |
| 20260902171721 | 69 | 57 | 0.0 | 0.0 | 0.00 | 0.08 | 0.08 | 59 | 1009.9 |
| 20260902171216 | 68 | 75 | 1.0 | 1.0 | 0.00 | 0.08 | 0.08 | 61 | 1009.7 |
| 20260902170712 | 67 | 346 | 2.0 | 2.0 | 0.00 | 0.08 | 0.08 | 63 | 1009.9 |
| 20260902170208 | 68 | 79 | 1.0 | 1.0 | 0.00 | 0.08 | 0.08 | 65 | 1010.0 |
| 20260902165702 | 66 | 166 | 4.0 | 5.0 | 0.00 | 0.08 | 0.08 | 63 | 1010.0 |
| 20260902165156 | 67 | 86 | 0.0 | 1.0 | 0.00 | 0.08 | 0.08 | 65 | 1010.1 |
| 20260902164652 | 66 | 176 | 1.0 | 1.0 | 0.00 | 0.08 | 0.08 | 68 | 1010.0 |
| 20260902164150 | 65 | 42 | 1.0 | 1.0 | 0.00 | 0.08 | 0.08 | 70 | 1010.2 |
| 20260902163646 | 65 | 117 | 0.0 | 0.0 | 0.00 | 0.08 | 0.08 | 69 | 1010.1 |
| 20260902163145 | 64 | 153 | 1.0 | 1.0 | 0.00 | 0.08 | 0.08 | 73 | 1010.0 |
| 20260902162644 | 65 | 218 | 3.0 | 3.0 | 0.00 | 0.08 | 0.08 | 72 | 1010.3 |
| 20260902162139 | 65 | 50 | 1.0 | 1.0 | 0.00 | 0.08 | 0.08 | 74 | 1010.1 |
| 20260902161634 | 63 | 170 | 1.0 | 1.0 | 0.00 | 0.08 | 0.08 | 74 | 1010.3 |
| 20260902161130 | 62 | 145 | 2.0 | 2.0 | 0.00 | 0.08 | 0.08 | 78 | 1010.3 |
| 20260902160626 | 62 | 135 | 1.0 | 1.0 | 0.00 | 0.08 | 0.08 | 77 | 1010.6 |
| 20260902160121 | 61 | 143 | 1.0 | 1.0 | 0.00 | 0.08 | 0.08 | 80 | 1010.5 |
| 20260902155619 | 61 | 198 | 2.0 | 2.0 | 0.00 | 0.08 | 0.08 | 79 | 1010.5 |
| 20260902155118 | 61 | 225 | 2.0 | 2.0 | 0.00 | 0.08 | 0.08 | 80 | 1010.5 |
| 20260902154613 | 60 | 124 | 0.0 | 0.0 | 0.00 | 0.08 | 0.08 | 81 | 1010.6 |
| 20260902154108 | 61 | 64 | 0.0 | 0.0 | 0.00 | 0.08 | 0.08 | 81 | 1010.7 |
| 20260902153607 | 60 | 94 | 1.0 | 1.0 | 0.00 | 0.08 | 0.08 | 81 | 1010.8 |
| 20260902153102 | 60 | 61 | 1.0 | 1.0 | 0.00 | 0.08 | 0.08 | 83 | 1010.7 |
| 20260902152559 | 60 | 123 | 0.0 | 0.0 | 0.00 | 0.08 | 0.08 | 82 | 1010.7 |
| 20260902152054 | 59 | 50 | 0.0 | 0.0 | 0.00 | 0.08 | 0.08 | 84 | 1010.8 |
| 20260902151550 | 59 | 22 | 2.0 | 2.0 | 0.00 | 0.08 | 0.08 | 85 | 1010.8 |
| 20260902151049 | 58 | 38 | 0.0 | 0.0 | 0.00 | 0.08 | 0.08 | 87 | 1011.0 |
| 20260902150544 | 58 | 34 | 0.0 | 0.0 | 0.00 | 0.08 | 0.08 | 88 | 1011.0 |
| 20260902150040 | 58 | 15 | 1.0 | 1.0 | 0.00 | 0.08 | 0.08 | 87 | 1011.3 |
| 20260902145535 | 58 | 61 | 0.0 | 0.0 | 0.00 | 0.08 | 0.08 | 87 | 1011.2 |
| 20260902145034 | 57 | 69 | 0.0 | 0.0 | 0.00 | 0.08 | 0.08 | 90 | 1011.6 |
| 20260902144532 | 57 | 66 | 0.0 | 0.0 | 0.00 | 0.08 | 0.08 | 89 | 1011.3 |
| 20260902144031 | 56 | 64 | 0.0 | 0.0 | 0.00 | 0.08 | 0.08 | 91 | 1011.3 |
| 20260902143526 | 55 | 63 | 0.0 | 0.0 | 0.00 | 0.08 | 0.08 | 93 | 1011.5 |
| 20260902143022 | 54 | 64 | 0.0 | 0.0 | 0.00 | 0.08 | 0.08 | 93 | 1011.5 |
| 20260902142517 | 55 | 61 | 0.0 | 0.0 | 0.00 | 0.08 | 0.08 | 94 | 1011.6 |
| 20260902142013 | 54 | 69 | 0.0 | 0.0 | 0.00 | 0.08 | 0.08 | 95 | 1011.6 |
| 20260902141507 | 54 | 70 | 0.0 | 0.0 | 0.00 | 0.08 | 0.08 | 95 | 1011.2 |
| 20260902141002 | 54 | 57 | 0.0 | 0.0 | 0.00 | 0.08 | 0.08 | 95 | 1011.3 |
| 20260902140457 | 53 | 56 | 0.0 | 0.0 | 0.00 | 0.08 | 0.08 | 95 | 1011.5 |
| 20260902135956 | 53 | 56 | 0.0 | 0.0 | 0.00 | 0.08 | 0.08 | 95 | 1011.5 |
| 20260902135452 | 53 | 56 | 0.0 | 0.0 | 0.00 | 0.08 | 0.08 | 95 | 1011.6 |
| 20260902134952 | 53 | 56 | 0.0 | 0.0 | 0.00 | 0.08 | 0.08 | 95 | 1011.8 |
| 20260902134448 | 53 | 54 | 0.0 | 0.0 | 0.00 | 0.08 | 0.08 | 95 | 1011.8 |
| 20260902133948 | 53 | 337 | 2.0 | 2.0 | 0.00 | 0.08 | 0.08 | 96 | 1011.7 |
| 20260902133443 | 52 | 50 | 0.0 | 0.0 | 0.00 | 0.08 | 0.08 | 95 | 1011.9 |
| 20260902132938 | 52 | 47 | 0.0 | 0.0 | 0.00 | 0.08 | 0.08 | 95 | 1011.8 |
| 20260902132433 | 52 | 57 | 2.0 | 2.0 | 0.00 | 0.08 | 0.08 | 95 | 1011.7 |
| 20260902131927 | 52 | 60 | 0.0 | 0.0 | 0.00 | 0.08 | 0.08 | 95 | 1011.7 |
| 20260902131424 | 52 | 56 | 0.0 | 0.0 | 0.00 | 0.08 | 0.08 | 95 | 1011.5 |
| 20260902130923 | 52 | 118 | 0.0 | 0.0 | 0.00 | 0.08 | 0.08 | 96 | 1011.8 |
| 20260902130419 | 52 | 178 | 2.0 | 2.0 | 0.00 | 0.08 | 0.08 | 96 | 1011.6 |
| 20260902125914 | 52 | 165 | 3.0 | 3.0 | 0.00 | 0.08 | 0.08 | 97 | 1011.6 |
| 20260902125410 | 52 | 123 | 0.0 | 0.0 | 0.00 | 0.08 | 0.08 | 96 | 1011.8 |
| 20260902124906 | 52 | 122 | 0.0 | 0.0 | 0.00 | 0.08 | 0.08 | 96 | 1011.8 |
| 20260902124402 | 52 | 133 | 2.0 | 2.0 | 0.00 | 0.08 | 0.08 | 96 | 1011.9 |
| 20260902123856 | 52 | 75 | 1.0 | 1.0 | 0.00 | 0.08 | 0.08 | 96 | 1011.8 |
| 20260902123353 | 52 | 69 | 2.0 | 2.0 | 0.00 | 0.08 | 0.08 | 95 | 1011.9 |
| 20260902122851 | 52 | 67 | 0.0 | 0.0 | 0.00 | 0.08 | 0.08 | 95 | 1012.0 |
| 20260902122347 | 53 | 31 | 0.0 | 0.0 | 0.00 | 0.08 | 0.08 | 95 | 1011.8 |
| 20260902121842 | 53 | 58 | 0.0 | 0.0 | 0.00 | 0.08 | 0.08 | 94 | 1011.8 |
| 20260902121337 | 53 | 59 | 0.0 | 0.0 | 0.00 | 0.08 | 0.08 | 94 | 1011.9 |
| 20260902120832 | 53 | 54 | 0.0 | 0.0 | 0.00 | 0.08 | 0.08 | 94 | 1012.1 |
| 20260902120328 | 53 | 53 | 0.0 | 0.0 | 0.00 | 0.08 | 0.08 | 93 | 1012.2 |
| 20260902115823 | 54 | 26 | 0.0 | 0.0 | 0.00 | 0.08 | 0.08 | 93 | 1012.1 |
| 20260902115319 | 54 | 56 | 0.0 | 0.0 | 0.00 | 0.08 | 0.08 | 92 | 1012.0 |
| 20260902114815 | 54 | 297 | 4.0 | 5.0 | 0.00 | 0.08 | 0.08 | 91 | 1012.5 |
| 20260902114311 | 54 | 295 | 3.0 | 3.0 | 0.00 | 0.08 | 0.08 | 90 | 1012.6 |
| 20260902113811 | 55 | 34 | 1.0 | 1.0 | 0.00 | 0.08 | 0.08 | 87 | 1012.4 |
| 20260902113306 | 55 | 108 | 2.0 | 2.0 | 0.00 | 0.08 | 0.08 | 86 | 1012.4 |
| 20260902112806 | 55 | 117 | 2.0 | 2.0 | 0.00 | 0.08 | 0.08 | 88 | 1012.2 |
| 20260902112305 | 54 | 286 | 3.0 | 3.0 | 0.00 | 0.08 | 0.08 | 93 | 1012.2 |
| 20260902111758 | 54 | 49 | 0.0 | 0.0 | 0.00 | 0.08 | 0.08 | 94 | 1012.1 |
| 20260902111254 | 53 | 30 | 2.0 | 2.0 | 0.00 | 0.08 | 0.08 | 94 | 1012.2 |
| 20260902110750 | 53 | 55 | 0.0 | 1.0 | 0.00 | 0.08 | 0.08 | 94 | 1012.2 |
| 20260902110245 | 53 | 93 | 2.0 | 2.0 | 0.00 | 0.08 | 0.08 | 94 | 1012.1 |
| 20260902105740 | 53 | 86 | 3.0 | 3.0 | 0.00 | 0.08 | 0.08 | 93 | 1012.2 |
| 20260902105235 | 54 | 89 | 3.0 | 3.0 | 0.00 | 0.08 | 0.08 | 93 | 1012.2 |
| 20260902104730 | 55 | 66 | 0.0 | 0.0 | 0.00 | 0.08 | 0.08 | 92 | 1012.0 |
| 20260902104226 | 55 | 81 | 3.0 | 3.0 | 0.00 | 0.08 | 0.08 | 92 | 1012.4 |
| 20260902103725 | 56 | 101 | 2.0 | 2.0 | 0.00 | 0.08 | 0.08 | 92 | 1012.6 |
| 20260902103225 | 56 | 111 | 3.0 | 3.0 | 0.00 | 0.08 | 0.08 | 92 | 1012.5 |
| 20260902102721 | 56 | 132 | 3.0 | 3.0 | 0.00 | 0.08 | 0.08 | 90 | 1012.5 |
| 20260902102219 | 56 | 51 | 0.0 | 0.0 | 0.00 | 0.08 | 0.08 | 90 | 1012.2 |
| 20260902101714 | 56 | 131 | 2.0 | 2.0 | 0.00 | 0.08 | 0.08 | 90 | 1012.2 |
| 20260902101209 | 57 | 117 | 0.0 | 1.0 | 0.00 | 0.08 | 0.08 | 90 | 1012.4 |
| 20260902100707 | 57 | 131 | 1.0 | 2.0 | 0.00 | 0.08 | 0.08 | 90 | 1012.2 |
| 20260902100202 | 57 | 205 | 2.0 | 2.0 | 0.00 | 0.08 | 0.08 | 90 | 1012.5 |
| 20260902095702 | 56 | 213 | 3.0 | 3.0 | 0.00 | 0.08 | 0.08 | 91 | 1012.7 |
| 20260902095156 | 56 | 129 | 1.0 | 2.0 | 0.00 | 0.08 | 0.08 | 91 | 1012.6 |
| 20260902094651 | 57 | 151 | 1.0 | 1.0 | 0.00 | 0.08 | 0.08 | 91 | 1012.5 |
| 20260902094148 | 57 | 203 | 2.0 | 2.0 | 0.00 | 0.08 | 0.08 | 91 | 1012.5 |
| 20260902093647 | 57 | 241 | 4.0 | 5.0 | 0.00 | 0.08 | 0.08 | 91 | 1012.4 |
| 20260902093142 | 57 | 269 | 3.0 | 3.0 | 0.00 | 0.08 | 0.08 | 91 | 1012.5 |
| 20260902092637 | 57 | 233 | 4.0 | 5.0 | 0.00 | 0.08 | 0.08 | 91 | 1012.6 |
| 20260902092131 | 57 | 230 | 5.0 | 5.0 | 0.00 | 0.08 | 0.08 | 91 | 1012.5 |
| 20260902091626 | 58 | 327 | 3.0 | 3.0 | 0.00 | 0.08 | 0.08 | 90 | 1012.4 |
| 20260902091122 | 58 | 80 | 1.0 | 1.0 | 0.00 | 0.08 | 0.08 | 89 | 1012.2 |
| 20260902090618 | 58 | 90 | 2.0 | 2.0 | 0.00 | 0.08 | 0.08 | 88 | 1012.1 |
| 20260902090117 | 58 | 75 | 3.0 | 3.0 | 0.00 | 0.08 | 0.08 | 88 | 1012.5 |
| 20260902085612 | 58 | 72 | 1.0 | 2.0 | 0.00 | 0.08 | 0.08 | 87 | 1012.5 |
| 20260902085107 | 59 | 111 | 5.0 | 6.0 | 0.00 | 0.08 | 0.08 | 86 | 1012.8 |
| 20260902084603 | 58 | 109 | 3.0 | 3.0 | 0.00 | 0.08 | 0.08 | 87 | 1013.1 |
| 20260902084059 | 58 | 119 | 5.0 | 6.0 | 0.00 | 0.08 | 0.08 | 88 | 1013.0 |
| 20260902083553 | 58 | 114 | 4.0 | 5.0 | 0.00 | 0.08 | 0.08 | 89 | 1013.6 |
| 20260902083048 | 58 | 96 | 7.0 | 8.0 | 0.00 | 0.08 | 0.08 | 89 | 1013.7 |
| 20260902082544 | 58 | 99 | 8.0 | 9.0 | 0.07 | 0.08 | 0.08 | 89 | 1013.9 |
| 20260902082040 | 58 | 100 | 9.0 | 9.0 | 0.07 | 0.08 | 0.08 | 89 | 1014.2 |
| 20260902081536 | 57 | 103 | 10.0 | 10.0 | 0.05 | 0.07 | 0.07 | 90 | 1014.5 |
| 20260902081036 | 58 | 93 | 6.0 | 7.0 | 0.12 | 0.07 | 0.07 | 90 | 1014.5 |
| 20260902080531 | 58 | 75 | 2.0 | 3.0 | 0.07 | 0.06 | 0.06 | 89 | 1014.5 |
| 20260902080028 | 58 | 86 | 0.0 | 0.0 | 0.05 | 0.05 | 0.05 | 88 | 1014.7 |
| 20260902075527 | 58 | 100 | 0.0 | 1.0 | 0.12 | 0.05 | 0.05 | 88 | 1014.7 |
| 20260902075023 | 59 | 121 | 2.0 | 3.0 | 0.12 | 0.04 | 0.04 | 87 | 1014.6 |
| 20260902074519 | 59 | 175 | 3.0 | 3.0 | 0.12 | 0.03 | 0.03 | 85 | 1015.3 |
| 20260902074013 | 59 | 227 | 4.0 | 6.0 | 0.07 | 0.02 | 0.02 | 83 | 1014.7 |
| 20260902073509 | 60 | 236 | 9.0 | 10.0 | 0.07 | 0.01 | 0.01 | 80 | 1014.9 |
| 20260902073006 | 59 | 242 | 8.0 | 9.0 | 0.07 | 0.01 | 0.01 | 81 | 1014.7 |
| 20260902072501 | 59 | 232 | 9.0 | 10.0 | 0.00 | 0.00 | 0.00 | 81 | 1014.6 |
| 20260902071957 | 60 | 236 | 11.0 | 13.0 | 0.00 | 0.00 | 0.00 | 79 | 1014.5 |
| 20260902071456 | 60 | 270 | 10.0 | 14.0 | 0.00 | 0.00 | 0.00 | 78 | 1014.1 |
| 20260902070953 | 61 | 267 | 15.0 | 17.0 | 0.00 | 0.00 | 0.00 | 73 | 1013.6 |
| 20260902070449 | 62 | 241 | 14.0 | 18.0 | 0.00 | 0.00 | 0.00 | 73 | 1013.9 |
| 20260902065947 | 63 | 244 | 11.0 | 11.0 | 0.00 | 0.00 | 0.00 | 68 | 1014.2 |
| 20260902065442 | 65 | 248 | 12.0 | 14.0 | 0.00 | 0.00 | 0.00 | 61 | 1014.0 |
| 20260902064937 | 66 | 240 | 17.0 | 22.0 | 0.00 | 0.00 | 0.00 | 56 | 1014.4 |
| 20260902064433 | 67 | 226 | 10.0 | 11.0 | 0.00 | 0.00 | 0.00 | 53 | 1014.2 |
| 20260902063928 | 67 | 235 | 19.0 | 21.0 | 0.00 | 0.00 | 0.00 | 51 | 1014.0 |
| 20260902063428 | 66 | 237 | 16.0 | 20.0 | 0.00 | 0.00 | 0.00 | 53 | 1014.0 |
| 20260902062923 | 66 | 279 | 10.0 | 13.0 | 0.00 | 0.00 | 0.00 | 56 | 1013.8 |
| 20260902062422 | 65 | 235 | 10.0 | 11.0 | 0.00 | 0.00 | 0.00 | 59 | 1013.6 |
| 20260902061917 | 66 | 254 | 10.0 | 13.0 | 0.00 | 0.00 | 0.00 | 58 | 1013.4 |
| 20260902061412 | 66 | 269 | 9.0 | 10.0 | 0.00 | 0.00 | 0.00 | 59 | 1013.2 |
| 20260902060909 | 65 | 249 | 7.0 | 8.0 | 0.00 | 0.00 | 0.00 | 60 | 1013.1 |
| 20260902060404 | 65 | 245 | 8.0 | 10.0 | 0.00 | 0.00 | 0.00 | 61 | 1013.2 |
| 20260902055900 | 65 | 246 | 4.0 | 5.0 | 0.00 | 0.00 | 0.00 | 61 | 1013.1 |
| 20260902055356 | 64 | 253 | 5.0 | 6.0 | 0.00 | 0.00 | 0.00 | 62 | 1013.0 |
| 20260902054851 | 62 | 68 | 0.0 | 0.0 | 0.00 | 0.00 | 0.00 | 71 | 1012.8 |
| 20260902054347 | 63 | 68 | 0.0 | 0.0 | 0.00 | 0.00 | 0.00 | 70 | 1012.9 |
| 20260902053842 | 65 | 84 | 2.0 | 2.0 | 0.00 | 0.00 | 0.00 | 68 | 1012.9 |
| 20260902053337 | 65 | 82 | 1.0 | 1.0 | 0.00 | 0.00 | 0.00 | 61 | 1012.8 |
| 20260902052836 | 65 | 359 | 0.0 | 0.0 | 0.00 | 0.00 | 0.00 | 60 | 1012.8 |
| 20260902052331 | 65 | 9 | 0.0 | 0.0 | 0.00 | 0.00 | 0.00 | 60 | 1012.8 |